Change the Weather History Date:

Sunday, January 13, 2013

  Actual Average Record
Temperature  
Mean Temperature 39 °F 28 °F  
Max Temperature 56 °F 35 °F 64 °F (1950)
Min Temperature 22 °F 20 °F -10 °F (1997)
Degree Days  
Heating Degree Days 26 37  
Month to date heating degree days 427 481  
Since 1 July heating degree days 2408 2557  
Cooling Degree Days 0 0  
Month to date cooling degree days 0 0  
Year to date cooling degree days 0 0  
Moisture  
Dew Point 34 °F    
Average Humidity 87    
Maximum Humidity 100    
Minimum Humidity 74    
Precipitation  
Precipitation 1.27 in 0.09 in 1.47 in (2005)
Month to date precipitation 3.85 1.22  
Year to date precipitation 3.85 1.22  
Snow  
Snow 0.00 in 0.30 in 7.80 in (1927)
Month to date snowfall 0.3 3.5  
Since 1 July snowfall 15.3 11.5  
Snow Depth 0.00 in    
Sea Level Pressure  
Sea Level Pressure 29.95 in    
Wind  
Wind Speed 13 mph (NW)    
Max Wind Speed 36 mph    
Max Gust Speed 45 mph    
Visibility 7 miles    
Events Rain    
T = Trace of Precipitation, MM = Missing Value Source: NWS Daily Summary

Daily Weather History Graph

Daily Weather History Graph

Search for Another Location

Airport or City:

Trip Planner

Search our weather history database for the weather conditions in past years. The results will help you decide how hot, cold, wet, or windy it might be!

Date:

Astronomy

Jan. 13, 2013 Rise Set
Actual Time 8:05 AM EST 5:43 PM EST
Civil Twilight 7:35 AM EST 6:13 PM EST
Nautical Twilight 7:02 AM EST 6:46 PM EST
Astronomical Twilight 6:29 AM EST 7:18 PM EST
Moon 9:03 AM EST (1/13) 8:20 PM EST (1/13)
Length of Visible Light 10h 37m
Length of Day
9h 38m
Waxing Crescent, 5% of the Moon is Illuminated
Jan 13
Waxing Crescent
Jan 18
First Quarter
Jan 26
Full
Feb 3
Last Quarter
Feb 10
New

Hourly Weather History & Observations

Time (EST) Temp. Windchill Dew Point Humidity Pressure Visibility Wind Dir Wind Speed Gust Speed Precip Events Conditions
12:25 AM 55.4 °F - 55.4 °F 100% 29.67 in 10.0 mi NNE 6.9 mph - 0.01 in Rain Light Rain
12:54 AM 55.9 °F - 55.9 °F 100% 29.63 in 3.0 mi NE 6.9 mph - 0.07 in Rain Heavy Rain
1:14 AM 51.8 °F - 51.8 °F 100% 29.70 in 1.2 mi NW 34.5 mph 44.9 mph 0.18 in Rain Heavy Rain
1:28 AM 48.2 °F - 48.2 °F 100% 29.66 in 3.0 mi NNW 21.9 mph 34.5 mph 0.42 in Rain Rain
1:54 AM 46.0 °F 38.8 °F 45.0 °F 96% 29.74 in 5.0 mi NW 18.4 mph - 0.45 in Rain Rain
2:03 AM 44.6 °F 36.9 °F 44.6 °F 100% 29.74 in 5.0 mi NW 18.4 mph - 0.02 in Rain Rain
2:29 AM 44.6 °F 38.1 °F 42.8 °F 93% 29.76 in 10.0 mi NNW 13.8 mph - 0.04 in Rain Light Rain
2:54 AM 44.1 °F 40.1 °F 43.0 °F 96% 29.75 in 6.0 mi NNE 6.9 mph - 0.08 in Rain Light Rain
3:25 AM 44.6 °F 39.7 °F 42.8 °F 93% 29.79 in 6.0 mi NW 9.2 mph - 0.03 in Rain Rain
3:54 AM 42.1 °F 33.6 °F 39.9 °F 92% 29.84 in 6.0 mi WNW 18.4 mph - 0.10 in Rain Rain
4:54 AM 39.9 °F 32.1 °F 37.9 °F 93% 29.86 in 10.0 mi NW 13.8 mph - 0.10 in Rain Light Rain
5:54 AM 39.0 °F 32.3 °F 37.9 °F 96% 29.88 in 10.0 mi NW 10.4 mph - 0.03 in Rain Light Rain
6:54 AM 39.0 °F 32.8 °F 37.9 °F 96% 29.89 in 10.0 mi NNW 9.2 mph - 0.03 in Rain Light Rain
7:54 AM 39.0 °F 33.4 °F 37.0 °F 93% 29.89 in 10.0 mi NNW 8.1 mph - 0.00 in   Overcast
8:54 AM 39.0 °F 32.3 °F 37.0 °F 93% 29.92 in 10.0 mi NW 10.4 mph - N/A   Overcast
9:23 AM 37.4 °F 32.1 °F 37.4 °F 100% 29.93 in 2.0 mi NW 6.9 mph - 0.00 in Rain Light Rain
9:32 AM 37.4 °F 30.8 °F 37.4 °F 100% 29.93 in 1.5 mi NW 9.2 mph - 0.01 in Rain Light Rain
9:54 AM 37.9 °F 32.1 °F 37.0 °F 97% 29.94 in 1.5 mi NNW 8.1 mph - 0.02 in Rain Light Rain
10:06 AM 37.4 °F 30.8 °F 37.4 °F 100% 29.93 in 2.0 mi NNW 9.2 mph - 0.00 in Rain Light Rain
10:15 AM 37.4 °F 32.1 °F 37.4 °F 100% 29.93 in 3.0 mi NNW 6.9 mph - 0.00 in Rain Light Rain
10:54 AM 37.9 °F 31.5 °F 37.0 °F 97% 29.94 in 7.0 mi NW 9.2 mph - 0.00 in   Overcast
11:36 AM 37.4 °F 29.8 °F 37.4 °F 100% 29.95 in 1.5 mi NW 11.5 mph - 0.00 in Rain Light Rain
11:54 AM 37.0 °F 28.9 °F 36.0 °F 96% 29.94 in 1.5 mi NW 12.7 mph - 0.00 in Rain Light Rain
12:54 PM 36.0 °F 29.6 °F 35.1 °F 97% 29.88 in 1.5 mi NNE 8.1 mph - 0.01 in   Light Drizzle
1:03 PM 35.6 °F 29.9 °F 35.6 °F 100% 29.84 in 2.0 mi NNE 6.9 mph - 0.00 in   Light Drizzle
1:14 PM 35.6 °F 29.2 °F 35.6 °F 100% 29.85 in 6.0 mi NNW 8.1 mph - 0.00 in Rain Light Rain
1:45 PM 35.6 °F 25.9 °F 35.6 °F 100% 29.90 in 1.5 mi WNW 16.1 mph - 0.00 in Rain Light Rain
1:54 PM 36.0 °F 24.4 °F 35.1 °F 97% 29.94 in 1.0 mi West 23.0 mph - 0.05 in Rain Heavy Rain
2:38 PM 33.8 °F 23.9 °F 30.2 °F 87% 29.95 in 2.0 mi WNW 15.0 mph 23.0 mph 0.12 in Rain Rain
2:54 PM 32.0 °F 21.2 °F 30.9 °F 96% 29.99 in 2.0 mi WNW 16.1 mph 21.9 mph 0.19 in Rain Light Rain
3:21 PM 32.0 °F 23.0 °F 30.2 °F 93% 29.96 in 3.0 mi NW 11.5 mph - 0.07 in Rain Light Rain
3:54 PM 32.0 °F 22.1 °F 30.0 °F 92% 29.99 in 6.0 mi NNW 13.8 mph - 0.13 in Rain Light Freezing Rain
4:40 PM 32.0 °F 22.1 °F 30.2 °F 93% 29.97 in 10.0 mi NW 13.8 mph - 0.01 in Rain Light Freezing Rain
4:54 PM 32.0 °F 21.6 °F 30.9 °F 96% 30.01 in 10.0 mi NW 15.0 mph - 0.01 in Rain Light Freezing Rain
5:05 PM 32.0 °F 22.5 °F 30.2 °F 93% 30.01 in 10.0 mi WNW 12.7 mph - 0.00 in   Overcast
5:40 PM 32.0 °F 24.2 °F 30.2 °F 93% 30.03 in 10.0 mi WNW 9.2 mph - 0.00 in   Overcast
5:52 PM 32.0 °F 23.0 °F 30.2 °F 93% 30.03 in 10.0 mi WNW 11.5 mph - 0.00 in Rain Light Freezing Rain
5:54 PM 32.0 °F 22.1 °F 30.0 °F 92% 30.05 in 10.0 mi WNW 13.8 mph - 0.00 in Rain Light Freezing Rain
6:13 PM 30.2 °F 18.9 °F 30.2 °F 100% 30.02 in 10.0 mi WNW 16.1 mph - 0.00 in   Overcast
6:33 PM 30.2 °F 19.8 °F 28.4 °F 93% 30.04 in 9.0 mi WNW 13.8 mph - 0.00 in   Overcast
6:54 PM 30.9 °F 21.2 °F 28.9 °F 92% 30.08 in 10.0 mi WNW 12.7 mph - 0.00 in   Overcast
7:41 PM 28.4 °F 15.1 °F 26.6 °F 93% 30.09 in 10.0 mi WNW 20.7 mph 27.6 mph N/A   Overcast
7:54 PM 28.0 °F 15.3 °F 26.1 °F 92% 30.12 in 9.0 mi WNW 18.4 mph 24.2 mph N/A   Overcast
8:38 PM 26.6 °F 14.7 °F 24.8 °F 93% 30.12 in 8.0 mi WNW 15.0 mph 23.0 mph N/A   Overcast
8:48 PM 26.6 °F 15.7 °F 24.8 °F 93% 30.12 in 8.0 mi WNW 12.7 mph - N/A   Overcast
8:54 PM 27.0 °F 14.7 °F 24.1 °F 89% 30.15 in 8.0 mi WNW 16.1 mph - N/A   Overcast
9:19 PM 26.6 °F 12.4 °F 21.2 °F 80% 30.13 in 10.0 mi WNW 21.9 mph - N/A   Overcast
9:29 PM 24.8 °F 10.7 °F 21.2 °F 86% 30.14 in 10.0 mi WNW 19.6 mph - N/A   Mostly Cloudy
9:54 PM 24.1 °F 12.0 °F 18.0 °F 77% 30.17 in 10.0 mi NW 13.8 mph 24.2 mph N/A   Partly Cloudy
10:23 PM 23.0 °F 10.6 °F 19.4 °F 86% 30.17 in 10.0 mi WNW 13.8 mph - N/A   Mostly Cloudy
10:54 PM 23.0 °F 9.6 °F 18.0 °F 81% 30.21 in 10.0 mi WNW 16.1 mph - N/A   Overcast
11:21 PM 23.0 °F 11.1 °F 19.4 °F 86% 30.20 in 10.0 mi NW 12.7 mph - N/A   Mostly Cloudy
11:54 PM 21.9 °F 8.7 °F 18.0 °F 85% 30.24 in 10.0 mi West 15.0 mph - N/A   Overcast